DW8097 Weather Reports


Display with metric or nautical units.
time (UTC)temp
F
wind
direction
speed
MPH
gust
MPH
rain 1hr
in
rain 24hr
in
rain mn
in
humidity
%
barometer
mb
20260904101538 71 218 0.0 2.0 0.00 0.12 0.00 93 1007.1
20260904100034 71 209 0.0 0.0 0.00 0.12 0.00 92 1007.1
20260904094531 71 209 0.0 0.0 0.00 0.12 0.00 92 1007.2
20260904093030 71 259 0.0 0.0 0.00 0.12 0.00 92 1007.2
20260904091530 72 259 0.0 0.0 0.00 0.12 0.00 92 1007.1
20260904090022 72 261 0.0 1.0 0.00 0.12 0.00 90 1007.0
20260904084520 73 153 0.0 0.0 0.00 0.12 0.00 89 1006.8
20260904083015 74 208 0.0 1.0 0.00 0.12 0.00 88 1006.6
20260904081514 75 237 0.0 3.0 0.00 0.12 0.00 89 1006.4
20260904080012 75 251 0.0 4.0 0.00 0.12 0.00 90 1006.4
20260904074527 75 255 1.0 4.0 0.00 0.12 0.00 89 1006.5
20260904073017 75 242 0.0 1.0 0.00 0.12 0.00 89 1006.7
20260904071508 74 186 0.0 0.0 0.00 0.12 0.00 89 1006.8
20260904070007 74 186 0.0 0.0 0.00 0.12 0.00 89 1006.9
20260904064510 74 186 0.0 1.0 0.00 0.12 0.00 88 1007.0
20260904063106 75 159 0.0 0.0 0.00 0.12 0.00 88 1007.1
20260904061558 75 159 0.0 1.0 0.00 0.12 0.00 88 1007.1
20260904060055 75 196 0.0 2.0 0.00 0.12 0.00 87 1007.1
20260904054553 75 118 0.0 5.0 0.00 0.12 0.00 86 1007.2
20260904053052 76 171 0.0 3.0 0.00 0.12 0.00 87 1007.2
20260904051552 76 215 0.0 2.0 0.00 0.12 0.00 86 1007.1
20260904050023 76 182 0.0 0.0 0.00 0.12 0.00 86 1007.2
20260904044522 76 216 0.0 1.0 0.00 0.12 0.00 86 1007.2
20260904043018 77 166 0.0 5.0 0.00 0.12 0.00 85 1007.3
20260904041526 77 134 1.0 4.0 0.00 0.12 0.00 86 1007.5
20260904040019 77 148 0.0 1.0 0.00 0.12 0.00 84 1007.5
20260904034516 77 134 0.0 3.0 0.00 0.12 0.00 86 1007.6
20260904033014 76 138 0.0 2.0 0.00 0.12 0.00 86 1007.6
20260904031513 76 140 0.0 2.0 0.00 0.12 0.00 86 1007.6
20260904030011 76 173 0.0 3.0 0.00 0.12 0.00 83 1007.6
20260904024511 76 205 0.0 1.0 0.00 0.12 0.00 83 1007.4
20260904023046 76 196 0.0 0.0 0.00 0.12 0.00 84 1007.3
20260904021540 77 182 0.0 2.0 0.00 0.12 0.00 83 1007.2
20260904020034 77 145 0.0 3.0 0.00 0.12 0.00 80 1007.1
20260904014547 77 168 2.0 5.0 0.00 0.12 0.00 82 1007.0
20260904013035 77 212 0.0 2.0 0.00 0.12 0.00 79 1007.1
20260904011530 78 176 0.0 2.0 0.00 0.12 0.00 79 1007.0
20260904010104 78 208 0.0 6.0 0.00 0.12 0.00 76 1007.0
20260904004559 79 171 0.0 5.0 0.00 0.12 0.00 75 1006.9
20260904003102 80 147 2.0 5.0 0.00 0.12 0.00 73 1006.9
20260904001554 81 215 0.0 7.0 0.00 0.12 0.00 71 1007.1
20260904000053 82 146 3.0 9.0 0.00 0.12 0.00 69 1006.7
20260903234554 83 182 4.0 10.0 0.00 0.12 0.00 68 1006.6
20260903233103 84 155 5.0 13.0 0.00 0.12 0.00 66 1006.5
20260903231550 84 196 5.0 14.0 0.00 0.12 0.00 65 1006.6
20260903230053 86 207 5.0 13.0 0.00 0.12 0.00 63 1006.6
20260903224546 86 190 1.0 12.0 0.00 0.12 0.00 62 1006.5
20260903223013 86 173 5.0 11.0 0.00 0.12 0.00 60 1006.6
20260903221519 86 134 4.0 11.0 0.00 0.12 0.00 60 1006.7
20260903220128 86 190 1.0 10.0 0.00 0.12 0.00 61 1006.9
20260903214539 88 180 3.0 13.0 0.00 0.12 0.00 57 1006.9
20260903213038 88 165 6.0 13.0 0.00 0.12 0.00 57 1006.9
20260903213036 88 137 6.0 13.0 0.00 0.12 0.00 57 1006.9
20260903211533 87 94 1.0 10.0 0.00 0.12 0.00 57 1007.1
20260903210032 88 117 4.0 12.0 0.00 0.12 0.00 56 1007.5
20260903204533 87 155 6.0 11.0 0.00 0.12 0.00 56 1007.4
20260903203032 87 223 4.0 10.0 0.00 0.12 0.00 56 1007.5
20260903201530 85 194 4.0 9.0 0.00 0.12 0.00 57 1007.4
20260903200028 85 146 6.0 13.0 0.00 0.12 0.00 58 1007.2
20260903194526 86 203 7.0 16.0 0.00 0.12 0.00 56 1007.4
20260903193021 89 113 7.0 14.0 0.00 0.12 0.00 56 1007.7
20260903191512 86 157 4.0 11.0 0.00 0.12 0.00 61 1007.9
20260903190010 83 132 2.0 11.0 0.00 0.12 0.00 64 1007.9
20260903184506 85 115 2.0 9.0 0.00 0.12 0.00 62 1008.3
20260903183001 82 116 3.0 9.0 0.00 0.12 0.00 66 1009.0
20260903181601 83 136 2.0 9.0 0.00 0.12 0.00 65 1009.0
20260903180058 82 119 4.0 9.0 0.00 0.12 0.00 68 1008.8
20260903174555 81 120 2.0 10.0 0.00 0.12 0.00 70 1008.8
20260903173057 83 150 5.0 10.0 0.00 0.12 0.00 64 1008.5
20260903171551 79 137 4.0 7.0 0.00 0.12 0.00 72 1008.7
20260903170048 79 114 4.0 8.0 0.00 0.12 0.00 70 1008.9
20260903164547 77 156 2.0 7.0 0.00 0.12 0.00 74 1008.8
20260903163039 78 119 4.0 9.0 0.00 0.12 0.00 71 1008.5
20260903161501 80 118 7.0 10.0 0.00 0.12 0.00 69 1008.4
20260903160059 81 167 6.0 9.0 0.00 0.12 0.12 68 1008.6
20260903154556 78 132 4.0 8.0 0.00 0.12 0.12 73 1008.5
20260903153055 78 178 2.0 6.0 0.00 0.12 0.12 71 1008.8
20260903151556 77 132 1.0 5.0 0.00 0.12 0.12 74 1008.7
20260903150109 74 242 2.0 6.0 0.00 0.12 0.12 80 1008.8
20260903144533 74 214 1.0 4.0 0.00 0.12 0.12 79 1008.4
20260903143028 74 116 3.0 8.0 0.00 0.12 0.12 80 1008.2
20260903141528 72 75 0.0 2.0 0.00 0.12 0.12 83 1008.0
20260903140035 72 40 0.0 4.0 0.01 0.12 0.12 84 1008.4
20260903134520 71 130 0.0 3.0 0.01 0.12 0.12 86 1008.8
20260903133021 71 232 0.0 8.0 0.01 0.12 0.12 86 1009.3
20260903131524 72 182 0.0 3.0 0.01 0.12 0.12 84 1009.3
20260903130017 72 279 0.0 6.0 0.00 0.11 0.11 84 1009.8
20260903124516 72 249 2.0 9.0 0.00 0.11 0.11 85 1009.2
20260903123020 73 207 1.0 12.0 0.00 0.11 0.11 83 1009.7
20260903121513 72 245 5.0 12.0 0.00 0.11 0.11 86 1009.2
20260903120012 71 271 6.0 13.0 0.01 0.11 0.11 88 1008.8
20260903114511 71 256 3.0 12.0 0.05 0.11 0.11 88 1008.8
20260903113011 71 232 1.0 9.0 0.11 0.11 0.11 88 1008.7
20260903111540 71 236 2.0 6.0 0.11 0.11 0.11 88 1008.5
20260903110040 72 265 1.0 7.0 0.10 0.10 0.10 85 1009.1
20260903104537 73 355 5.0 12.0 0.06 0.06 0.06 89 1008.8
20260903103037 71 283 0.0 0.0 0.00 0.00 0.00 92 1009.5